Weather Roundup
Issued by NWS Chicago, IL

Home | Current Version | Previous Version | Text Only | Print | Product List | Glossary On
Versions: 1 2 3 4 5 6 7 8 9 10 11 12 13 14 15 16 17 18 19 20 21 22 23 24 25 26 27 28 29 30 31 32 33 34 35 36 37 38 39 40 41 42 43 44 45 46 47 48 49 50
000
NZUS59 KLOT 302321
HRRLOT

CHICAGO AREA WEATHER ROUNDUP
NATIONAL WEATHER SERVICE CHICAGO/ROMEOVILLE IL
600 PM CDT MON MAR 30 2015

NOTE: "FAIR" INDICATES FEW OR NO CLOUDS BELOW 12,000 FEET WITH NO
SIGNIFICANT WEATHER AND/OR OBSTRUCTIONS TO VISIBILITY.

* THESE STATIONS ARE NOT UNDER NWS QUALITY CONTROL. THEY ALSO MAY NOT
  REPORT WEATHER SUCH AS PRECIPITATION OR FOG.

ILZ005-006-012>014-019>023-310000-
NORTHEAST ILLINOIS

CITY           SKY/WX    TMP DP  RH WIND       PRES   REMARKS
OHARE          CLOUDY    58  32  37 NE7       29.92S
MIDWAY         CLOUDY    61  31  32 N6        29.93S
AURORA         CLOUDY    60  34  37 W10G20    29.91F
LANSING*       CLOUDY    60  27  28 W3        29.93F
JOLIET*        CLOUDY    64  32  30 W3        29.91F
WAUKEGAN       LGT RAIN  52  36  54 NW3       29.94R
DUPAGE AIRPORT CLOUDY    57  38  48 N9        29.90F
WHEELING       CLOUDY    56  33  42 N6        29.95R
KANKAKEE*      CLOUDY    61  35  37 SW10      29.95F
MORRIS*        CLOUDY    62  32  32 SW6       29.91S
LEWIS AIRPORT* CLOUDY    61  29  28 W12G21    29.91F
NORTHERLY IS     N/A     51  33  50 NE10        N/A
$$

WIZ051-052-058>065-066-070>072-310000-
SOUTHEAST WISCONSIN

CITY           SKY/WX    TMP DP  RH WIND       PRES   REMARKS
MILWAUKEE      LGT RAIN  50  37  61 N5        29.92F
KENOSHA*       LGT RAIN  50  39  66 N5        29.94S
RACINE*        LGT RAIN  50  39  66 W5        29.94S
BURLINGTON     CLOUDY    48  36  62 E5        29.91F
WAUKESHA       MOSUNNY   46  39  76 NE6       29.91F
WEST BEND      CLOUDY    45  37  76 CALM      29.88F
$$

INZ001>003-010>013-019-020-310000-
NORTHWEST INDIANA

CITY           SKY/WX    TMP DP  RH WIND       PRES   REMARKS
GARY*          CLOUDY    57  25  28 CALM      29.94F
MICHIGAN CITY* NOT AVBL
RENSSELAER*    NOT AVBL
VALPARAISO     CLOUDY    57  32  38 W7        29.95F
$$

LMZ740>746-310000-
SOUTHERN LAKE MICHIGAN

STATION/POSITION TIME  SKY/WX   TEMP WIND        PRES    VSBY
                                AIR  DIR/SP/G
                 (UTC)          (F)  (DEG/KT/KT) (MB)    (MI)
HARRISON CRIB    2300            48  360/ 11/ 12   N/A
BURNHAM HARBOR   2300            50  360/ 13/ 14   N/A
CALUMET HARBOR   2200            60  280/  8/ 11 1012.5F
BURNS HARBOR     2200            49  290/  7/ 11 1014.9F
MICHIGAN CITY    2300            53  130/  1/  2   N/A
$$

ABBREVIATIONS USED IN REMARKS
   TC - TEMPERATURE IN CELSIUS
  WCI - WIND CHILL INDEX
   HX - HEAT INDEX
  VSB - VISIBILITY
$$


USA.gov is the U.S. government's official web portal to all federal, state and local government web resources and services.